Location: De Greiden
(52.9496°N, 5.9137°E)
Time: 23:15:29
(UTC+00:00)

Iridium 4 Rocket - Pass Details

Date: 24 January 2021
Orbit: 583 x 906 km, 86.9° (Epoch: 01 March)

Event Time Altitude Azimuth Distance (km) Brightness Sun altitude
Rises 17:23:47 0° 359° (N) 3,487 6.7 -11.5°
Reaches altitude 10° 17:26:30 10° 8° (N) 2,509 5.9 -11.9°
Maximum altitude 17:31:43 37° 75° (ENE) 1,258 4.1 -12.6°
Drops below altitude 10° 17:36:32 10° 142° (SE) 2,313 5.8 -13.3°
Sets 17:38:56 0° 151° (SSE) 3,181 6.5 -13.7°
